Tracking 31027 objects as of 19-Jul-2025
HD Live streaming from Space Station
objects crossing your sky now

DELTA 1 DEB

Track DELTA 1 DEB now!
10-day predictions


NORAD ID: 10766
Int'l Code: 1976-077BP
Perigee: 1,508.3 km
Apogee: 1,593.5 km
Inclination: 102.4 °
Period: 117.0 minutes
Semi major axis: 7921 km
RCS: 0.3637 m2 (medium)
Launch date: July 29, 1976
Source: United States (US)
Launch site: AIR FORCE WESTERN TEST RANGE (AFWTR)

Note: This is SATELLITE DEBRIS
Your satellite tracking list
SPACEBEE-134
Track 1 satellite(s)




NASA's NSSDC Master Catalog

Two Line Element Set (TLE):
1 10766U 76077BP  25199.50944301 -.00000021  00000-0  20110-3 0  9990
2 10766 102.3560 173.7235 0053770 130.9712 344.5569 12.31287510201281
Source of the keplerian elements: AFSPC